Precipitable_Water
0.31 0.31 0.26 0.19 0.16 0.19 0.17 0.17 0.14 0.19 0.32 0.34 0.38 0.40 0.42 0.45 0.60 0.69 0.76 0.85 0.91 0.97 1.00 1.01 1.03 1.08 1.18 1.20 1.23 1.17 1.09 1.04 1.00 1.04 1.04 0.97 0.86 0.79 0.78 0.66 0.50 0.47 0.45 0.43
0.27 0.30 0.28 0.26 0.27 0.17 0.22 0.24 0.20 0.27 0.32 0.46 0.47 0.49 0.49 0.56 0.65 0.72 0.82 0.87 0.91 0.96 1.00 1.00 1.03 1.05 1.14 1.18 1.18 1.18 1.09 1.06 1.06 1.05 1.05 0.98 0.86 0.81 0.79 0.63 0.52 0.49 0.45 0.43
0.26 0.33 0.28 0.20 0.29 0.31 0.30 0.32 0.31 0.28 0.35 0.51 0.48 0.48 0.47 0.52 0.59 0.63 0.71 0.81 0.86 0.92 0.97 1.03 1.04 1.09 1.11 1.13 1.13 1.08 1.05 1.05 1.03 1.04 1.01 0.96 0.89 0.83 0.77 0.60 0.55 0.50 0.46 0.45
0.26 0.32 0.20 0.29 0.38 0.38 0.32 0.33 0.36 0.37 0.40 0.48 0.55 0.59 0.57 0.57 0.58 0.63 0.72 0.78 0.85 0.96 1.02 1.08 1.09 1.11 1.14 1.12 1.04 1.03 1.03 1.02 1.05 1.02 1.00 0.96 0.88 0.82 0.70 0.60 0.55 0.50 0.47 0.44
0.24 0.25 0.27 0.29 0.33 0.33 0.31 0.31 0.41 0.39 0.45 0.47 0.51 0.58 0.57 0.64 0.64 0.66 0.74 0.83 0.86 0.89 0.99 1.04 1.07 1.10 1.09 1.04 0.99 0.99 0.98 0.99 1.01 1.02 0.96 0.87 0.79 0.72 0.68 0.62 0.56 0.51 0.47 0.44
0.26 0.19 0.17 0.27 0.37 0.45 0.43 0.28 0.45 0.44 0.49 0.53 0.53 0.44 0.49 0.60 0.61 0.65 0.74 0.82 0.81 0.85 0.90 1.01 1.07 1.11 1.04 0.99 0.99 0.95 0.94 0.93 0.94 0.93 0.82 0.79 0.78 0.74 0.71 0.65 0.58 0.51 0.47 0.45
0.25 0.21 0.24 0.35 0.43 0.49 0.29 0.31 0.49 0.51 0.49 0.47 0.46 0.50 0.56 0.59 0.59 0.63 0.66 0.70 0.79 0.86 0.87 0.99 1.10 1.11 1.01 1.02 0.99 1.03 1.07 1.01 0.99 0.97 0.92 0.88 0.83 0.79 0.74 0.67 0.60 0.52 0.49 0.44
0.24 0.20 0.18 0.40 0.40 0.32 0.40 0.49 0.51 0.52 0.55 0.53 0.55 0.55 0.55 0.57 0.58 0.61 0.63 0.70 0.75 0.76 0.80 0.89 1.06 1.08 1.04 1.01 1.12 1.12 1.07 1.02 1.01 0.98 0.97 0.93 0.86 0.80 0.75 0.68 0.62 0.55 0.48 0.44
0.26 0.25 0.36 0.41 0.41 0.47 0.50 0.49 0.52 0.52 0.52 0.54 0.55 0.56 0.55 0.60 0.60 0.62 0.65 0.68 0.74 0.76 0.80 0.86 0.95 1.03 1.06 1.11 1.16 1.15 1.07 1.05 1.05 1.03 1.00 0.98 0.94 0.88 0.78 0.70 0.64 0.56 0.48 0.46
0.29 0.33 0.36 0.40 0.45 0.48 0.51 0.51 0.55 0.55 0.53 0.53 0.50 0.51 0.50 0.53 0.55 0.56 0.61 0.67 0.74 0.76 0.78 0.85 0.99 0.96 1.05 1.09 1.10 1.08 1.02 0.99 1.00 0.97 0.94 0.95 0.95 0.92 0.81 0.70 0.66 0.58 0.51 0.50
0.29 0.33 0.38 0.39 0.43 0.47 0.49 0.53 0.55 0.56 0.54 0.52 0.53 0.52 0.53 0.53 0.54 0.56 0.59 0.62 0.67 0.73 0.78 0.80 0.89 0.98 0.99 0.99 1.05 1.01 0.98 0.98 0.96 0.94 0.91 0.89 0.90 0.89 0.81 0.77 0.73 0.63 0.60 0.59
0.26 0.34 0.35 0.35 0.42 0.48 0.47 0.49 0.52 0.54 0.53 0.55 0.54 0.53 0.54 0.52 0.55 0.56 0.57 0.62 0.66 0.71 0.74 0.78 0.86 0.90 0.94 0.97 0.96 0.93 0.87 0.90 0.94 0.92 0.91 0.90 0.87 0.86 0.85 0.82 0.78 0.73 0.71 0.68
0.33 0.40 0.38 0.40 0.42 0.45 0.47 0.49 0.52 0.53 0.55 0.53 0.55 0.55 0.55 0.54 0.55 0.58 0.59 0.60 0.61 0.65 0.72 0.76 0.75 0.79 0.87 0.94 0.94 0.91 0.89 0.91 0.89 0.89 0.89 0.88 0.88 0.83 0.77 0.79 0.81 0.77 0.73 0.70
0.36 0.35 0.31 0.37 0.38 0.43 0.46 0.49 0.49 0.51 0.53 0.56 0.56 0.57 0.57 0.55 0.57 0.57 0.57 0.60 0.62 0.63 0.66 0.71 0.74 0.74 0.81 0.85 0.87 0.85 0.86 0.85 0.89 0.88 0.91 0.92 0.90 0.88 0.86 0.79 0.73 0.72 0.72 0.68
0.33 0.34 0.34 0.37 0.39 0.40 0.43 0.44 0.44 0.44 0.45 0.46 0.50 0.50 0.53 0.53 0.54 0.55 0.58 0.61 0.63 0.65 0.65 0.65 0.70 0.75 0.81 0.84 0.86 0.86 0.86 0.86 0.89 0.91 0.89 0.89 0.90 0.89 0.86 0.83 0.79 0.73 0.70 0.66
0.28 0.29 0.30 0.30 0.33 0.35 0.37 0.38 0.38 0.40 0.41 0.43 0.44 0.44 0.44 0.45 0.47 0.51 0.56 0.59 0.57 0.59 0.63 0.65 0.64 0.72 0.80 0.84 0.87 0.87 0.88 0.90 0.91 0.91 0.90 0.89 0.87 0.86 0.85 0.83 0.78 0.74 0.70 0.67
0.20 0.20 0.22 0.23 0.26 0.29 0.32 0.36 0.37 0.37 0.40 0.41 0.42 0.42 0.41 0.41 0.40 0.41 0.44 0.48 0.54 0.57 0.62 0.65 0.67 0.71 0.77 0.82 0.86 0.85 0.86 0.87 0.89 0.90 0.89 0.89 0.90 0.86 0.85 0.82 0.77 0.74 0.72 0.72
0.25 0.25 0.26 0.26 0.25 0.25 0.27 0.29 0.33 0.36 0.38 0.39 0.40 0.38 0.36 0.36 0.36 0.39 0.40 0.42 0.44 0.47 0.55 0.61 0.67 0.70 0.74 0.78 0.81 0.84 0.86 0.85 0.84 0.84 0.87 0.86 0.86 0.86 0.83 0.79 0.76 0.74 0.74 0.75
0.23 0.23 0.24 0.25 0.25 0.24 0.26 0.27 0.29 0.32 0.36 0.36 0.35 0.34 0.35 0.34 0.34 0.36 0.40 0.38 0.38 0.41 0.44 0.52 0.59 0.65 0.69 0.74 0.76 0.79 0.81 0.84 0.85 0.85 0.86 0.85 0.83 0.83 0.81 0.80 0.78 0.78 0.81 0.77
0.24 0.25 0.24 0.24 0.26 0.25 0.24 0.26 0.28 0.29 0.31 0.32 0.32 0.31 0.30 0.32 0.34 0.32 0.35 0.35 0.37 0.38 0.44 0.46 0.49 0.56 0.61 0.65 0.71 0.74 0.76 0.78 0.78 0.80 0.82 0.83 0.82 0.80 0.79 0.79 0.80 0.79 0.79 0.76
0.23 0.24 0.24 0.24 0.24 0.24 0.25 0.29 0.28 0.29 0.30 0.30 0.28 0.29 0.30 0.32 0.31 0.31 0.30 0.30 0.34 0.37 0.38 0.42 0.44 0.45 0.50 0.59 0.64 0.66 0.69 0.72 0.73 0.73 0.76 0.76 0.77 0.77 0.77 0.77 0.77 0.78 0.79 0.77
0.22 0.23 0.24 0.26 0.25 0.25 0.27 0.29 0.30 0.30 0.29 0.28 0.28 0.29 0.29 0.29 0.29 0.29 0.31 0.30 0.33 0.34 0.34 0.38 0.40 0.39 0.42 0.49 0.56 0.61 0.63 0.64 0.66 0.69 0.74 0.73 0.71 0.71 0.78 0.77 0.77 0.78 0.79 0.80
0.25 0.25 0.25 0.25 0.27 0.28 0.30 0.31 0.30 0.30 0.29 0.29 0.28 0.28 0.27 0.27 0.27 0.26 0.25 0.30 0.31 0.31 0.31 0.33 0.34 0.36 0.38 0.42 0.47 0.51 0.56 0.59 0.61 0.64 0.65 0.67 0.69 0.72 0.74 0.73 0.76 0.77 0.78 0.79
0.27 0.26 0.27 0.28 0.29 0.30 0.30 0.32 0.32 0.31 0.31 0.31 0.30 0.28 0.27 0.24 0.26 0.29 0.29 0.29 0.29 0.28 0.29 0.31 0.31 0.32 0.35 0.38 0.39 0.42 0.46 0.49 0.53 0.55 0.62 0.63 0.64 0.66 0.67 0.71 0.70 0.73 0.73 0.73
0.27 0.27 0.28 0.28 0.29 0.31 0.32 0.34 0.33 0.33 0.32 0.30 0.29 0.27 0.27 0.28 0.26 0.26 0.26 0.26 0.27 0.27 0.28 0.30 0.30 0.30 0.32 0.34 0.35 0.36 0.38 0.41 0.45 0.47 0.50 0.52 0.57 0.61 0.64 0.62 0.58 0.60 0.64 0.67
0.30 0.28 0.29 0.30 0.32 0.33 0.33 0.33 0.32 0.32 0.30 0.28 0.29 0.29 0.29 0.29 0.28 0.26 0.26 0.25 0.25 0.25 0.26 0.27 0.28 0.28 0.29 0.30 0.31 0.32 0.34 0.36 0.38 0.39 0.42 0.44 0.45 0.47 0.50 0.54 0.59 0.62 0.61 0.59
0.30 0.32 0.32 0.30 0.31 0.33 0.33 0.31 0.29 0.27 0.26 0.26 0.26 0.28 0.27 0.27 0.26 0.25 0.25 0.25 0.25 0.24 0.24 0.25 0.26 0.27 0.28 0.29 0.30 0.31 0.32 0.34 0.35 0.35 0.36 0.37 0.38 0.38 0.39 0.41 0.43 0.45 0.48 0.49
Wind_Speed
10 15 20 27 30 27 29 27 24 19 11 10 13 15 17 22 25 30 33 33 33 33 33 34 34 34 35 33 33 32 31 30 28 28 26 24 22 20 19 18 17 16 15 15
12 19 21 15 11 29 20 17 22 20 12 10 11 14 15 16 24 26 29 30 31 32 33 33 33 33 33 32 31 31 32 31 29 29 27 25 23 22 21 19 18 17 17 16
15 20 23 12 7 15 17 12 13 20 13 10 11 13 15 16 19 20 22 28 31 32 32 33 33 33 33 33 31 31 30 30 30 29 29 27 25 24 22 21 20 19 18 18
11 14 14 15 9 13 15 11 11 12 12 13 13 13 13 15 17 19 19 21 25 29 31 32 32 33 33 32 31 30 29 29 30 29 29 27 26 25 24 22 21 20 20 19
10 15 17 9 6 13 14 13 9 10 11 12 16 18 10 10 13 17 18 20 23 24 27 30 31 32 32 31 30 29 29 29 29 29 28 27 26 25 24 23 22 21 20 20
9 13 9 3 7 15 18 13 8 10 11 10 13 19 10 7 10 12 16 19 22 23 25 28 30 32 32 31 31 29 28 28 28 28 27 27 26 25 24 23 22 22 21 21
11 14 8 2 7 16 15 12 9 10 12 13 14 13 12 9 9 10 12 15 18 23 25 28 30 32 33 32 32 30 28 29 29 27 26 26 25 24 24 23 22 22 22 21
8 10 7 5 8 13 12 12 11 9 10 11 12 12 13 12 12 11 11 11 14 19 21 25 28 31 33 33 32 31 30 29 28 27 27 25 25 24 24 23 23 23 22 21
10 11 9 9 9 9 10 11 10 9 9 10 10 8 9 10 10 12 13 13 13 16 19 24 24 27 30 31 31 31 30 30 29 28 27 26 25 24 24 24 23 23 22 21
9 10 12 10 8 8 7 8 9 8 8 8 9 8 8 8 9 10 13 14 16 15 18 22 26 26 23 26 28 29 29 29 29 29 28 28 27 26 25 25 25 24 23 22
11 11 8 12 9 7 6 6 7 7 6 5 7 7 8 8 7 7 8 9 14 15 16 18 20 23 27 24 25 27 27 28 28 28 29 28 28 27 27 26 26 25 25 24
6 8 5 7 8 7 7 5 4 5 5 4 5 5 7 7 8 8 8 8 9 10 13 15 19 21 22 24 24 25 26 27 27 27 28 29 29 28 27 26 27 26 26 25
3 6 7 4 4 5 6 5 5 3 4 4 3 5 5 6 6 7 7 7 8 9 10 13 16 18 19 23 25 24 24 26 27 27 27 29 29 29 28 27 27 28 27 27
9 5 7 7 5 4 4 5 5 3 2 2 2 2 5 5 6 6 7 9 9 10 11 12 14 17 22 24 28 27 28 27 27 28 28 29 29 29 29 28 28 28 29 29
10 9 8 6 6 5 4 3 4 3 3 2 2 3 5 7 7 8 9 9 10 10 11 12 14 16 20 24 26 29 29 28 29 29 29 29 30 30 30 29 28 28 28 29
7 7 7 7 7 6 5 5 4 5 4 5 5 5 5 6 7 9 11 12 12 12 13 13 14 16 17 20 23 25 25 27 28 29 29 30 30 31 31 30 30 29 28 28
7 8 8 8 8 8 7 7 7 6 6 7 7 8 8 9 10 11 11 12 14 14 15 16 16 16 18 20 22 24 28 26 27 27 29 30 31 31 32 32 32 31 30 30
7 7 8 9 10 10 9 8 8 8 8 8 9 10 10 11 12 13 14 14 15 16 16 17 18 19 18 20 23 25 27 28 29 29 28 29 31 33 34 34 33 33 32 31
10 11 11 11 11 12 12 11 11 10 10 10 11 12 13 13 14 14 15 14 15 16 18 18 19 20 20 20 21 24 26 28 29 30 31 30 29 29 31 35 33 34 37 33
12 13 14 14 14 13 13 13 13 12 12 13 13 14 14 14 15 15 15 15 15 16 18 19 20 20 21 21 22 23 24 26 28 29 30 30 31 31 31 30 32 32 33 33
13 14 15 15 15 15 14 14 13 14 14 14 16 16 17 18 17 17 16 15 16 17 18 19 19 20 22 22 22 23 24 26 27 29 31 32 33 34 34 32 32 32 32 33
16 16 15 15 15 15 15 15 14 15 16 16 17 17 18 18 18 18 17 18 18 18 18 18 19 20 21 22 22 23 23 24 24 25 24 26 28 30 30 30 31 31 32 33
16 16 16 15 14 14 14 15 16 17 18 18 19 19 19 19 19 19 19 19 19 19 19 18 19 19 20 20 21 22 22 23 24 25 27 25 25 26 27 27 26 29 29 30
16 16 15 14 13 12 12 12 14 16 18 20 20 20 20 19 19 19 19 20 20 20 20 19 19 18 18 17 19 20 22 22 22 24 22 24 25 24 25 23 23 23 24 23
16 16 15 13 12 11 11 12 13 15 16 18 19 19 20 19 20 20 20 21 21 20 20 20 19 19 18 17 17 18 17 19 20 19 20 22 21 20 20 21 23 24 26 24
17 16 14 13 12 11 12 13 14 14 15 15 14 14 15 17 18 19 20 21 21 21 21 21 21 20 20 19 19 19 18 18 18 18 19 20 20 21 22 22 23 23 24 25
16 15 13 13 13 13 13 13 15 16 16 15 15 15 15 16 17 18 20 20 21 21 21 21 21 21 20 21 21 21 21 20 20 19 19 19 20 20 21 21 22 23 24 25
Wind_Direction
206 197 189 190 195 192 197 203 205 196 180 194 198 200 201 200 193 194 195 196 197 198 199 200 202 205 208 211 213 211 213 215 218 219 221 222 225 229 232 234 235 236 238 239
179 173 163 154 179 199 196 196 204 181 175 196 191 190 183 182 187 188 193 197 200 200 200 203 205 207 208 211 212 212 215 218 220 220 221 223 226 230 232 234 234 236 238 238
163 165 158 150 173 165 171 177 196 185 195 194 184 179 184 183 185 191 197 201 202 203 205 206 207 208 210 212 213 216 217 217 218 219 221 225 228 229 231 232 233 235 236 235
178 177 164 168 156 170 159 168 175 181 194 195 178 161 174 187 193 196 199 201 202 203 206 207 208 207 209 210 212 213 215 218 218 219 222 224 226 228 230 230 233 234 235 233
170 147 157 134 190 191 184 172 179 185 189 192 183 183 158 177 191 199 202 201 202 205 209 208 207 206 207 209 211 214 217 218 217 218 219 221 224 225 227 230 232 233 234 233
126 144 144 217 222 188 183 172 191 190 181 175 192 186 174 187 189 196 203 207 210 211 212 209 208 209 210 212 213 215 216 214 213 214 217 219 221 224 226 229 230 232 234 235
103 142 129 2 181 180 184 187 203 192 191 193 188 192 208 205 198 197 203 210 213 213 216 213 212 211 213 214 216 216 215 215 215 217 217 219 221 223 224 227 230 232 234 235
126 117 95 33 147 165 190 193 192 186 190 195 203 208 214 218 219 215 217 213 212 209 213 215 214 215 216 217 218 216 215 214 215 216 218 219 221 223 226 228 229 231 232 235
100 115 92 94 128 154 168 180 181 185 191 197 198 205 215 224 226 227 224 220 217 214 217 216 213 215 221 217 218 216 216 216 217 218 220 221 223 225 227 227 229 230 232 236
122 84 74 85 94 118 141 165 178 182 191 201 210 221 221 225 221 232 235 232 227 228 224 219 219 213 215 217 216 217 218 218 220 221 223 225 228 229 229 228 229 231 234 238
90 61 92 66 79 95 111 137 168 180 185 196 209 217 218 226 231 231 232 236 229 228 225 219 219 217 216 218 213 215 218 219 222 224 225 227 229 230 231 231 232 234 238 241
74 60 71 62 62 77 85 94 135 184 198 211 218 222 229 230 235 240 244 233 228 224 225 222 218 217 217 214 215 216 217 221 225 227 230 230 230 231 233 235 235 238 240 243
40 63 45 59 49 57 81 79 83 128 185 202 215 227 230 229 235 238 240 241 234 236 230 224 224 222 221 218 217 219 224 228 230 231 231 230 230 230 233 237 239 240 242 245
48 52 46 40 42 45 52 72 66 86 119 205 221 233 235 237 244 249 250 250 251 249 244 238 236 234 230 230 229 231 232 235 232 233 233 232 231 233 235 237 240 243 245 246
48 44 46 39 38 34 20 7 42 36 12 7 324 278 267 263 263 258 258 258 255 254 256 254 248 247 241 236 238 233 234 237 234 235 234 234 234 235 237 240 242 245 246 247
36 29 24 19 11 1 354 344 341 339 323 306 315 315 304 288 276 268 264 263 262 259 259 259 257 253 249 241 237 235 236 236 235 235 235 235 236 238 240 241 243 245 246 247
5 360 353 351 347 339 330 324 318 313 310 307 303 297 297 293 288 283 277 272 263 261 261 260 261 259 253 247 240 241 239 238 234 236 237 238 241 241 242 243 244 246 248 247
333 330 328 324 321 319 318 315 308 309 306 299 298 300 299 297 293 288 282 279 273 265 265 264 261 258 257 253 248 246 244 240 239 241 242 245 245 247 244 243 246 246 247 248
315 312 309 308 308 305 305 303 299 294 295 295 299 301 297 294 292 290 283 280 278 275 271 268 266 261 258 258 254 250 247 243 243 244 244 247 246 245 248 248 251 248 246 249
312 307 303 302 301 297 294 294 291 288 289 291 294 296 296 294 293 290 286 281 281 278 275 273 268 264 261 260 256 253 251 248 247 248 248 249 248 248 250 250 250 249 247 245
326 316 309 300 297 293 291 287 282 282 286 290 291 292 291 289 291 287 285 281 283 283 281 274 270 267 263 263 259 257 255 254 253 252 252 252 253 255 254 252 252 251 249 246
320 318 315 308 297 291 286 284 282 281 282 286 289 289 287 287 287 283 281 280 282 283 282 276 273 272 268 262 260 259 257 256 256 255 249 254 254 259 250 256 255 251 249 247
315 318 314 310 306 301 291 285 282 282 282 283 286 290 287 284 283 280 279 281 281 282 281 278 279 276 271 264 259 258 258 258 257 259 254 256 251 257 256 258 257 254 248 251
309 312 312 308 305 303 301 301 296 289 284 284 285 285 284 283 282 280 280 279 278 278 276 276 278 277 272 266 261 260 258 258 258 255 257 259 259 252 258 255 257 253 242 248
305 305 305 305 299 298 304 309 310 309 304 296 289 284 283 280 280 282 281 280 279 277 274 273 273 273 269 266 265 263 262 258 258 258 256 258 258 252 251 252 255 256 252 250
309 300 296 297 296 296 299 306 312 315 317 316 311 302 292 287 284 284 283 282 280 278 274 272 271 269 267 265 264 262 262 261 260 260 260 259 255 256 258 260 260 256 250 252
311 306 294 287 287 290 295 302 308 311 311 309 307 308 307 302 297 291 287 284 282 280 277 273 270 269 267 265 264 262 261 261 262 262 262 263 263 262 262 263 261 258 260 262